Tracking 35237 objects as of 6-Sep-2026
HD Live streaming from Space Station
objects crossing your sky now

COSMOS 554 DEB


COSMOS 554 DEB is no longer on orbit


NORAD ID: 6692
Int'l Code: 1973-021GY
Launch date: April 19, 1973
Source: Commonwealth of Independent States (former USSR) (CIS)
Launch site: PLESETSK MISSILE AND SPACE COMPLEX (PKMTR)
Decay date: 1973-06-15

Note: This is SATELLITE DEBRIS
Your satellite tracking list
Your tracking list is empty




NASA's NSSDC Master Catalog

Two Line Element Set (TLE):
1 06692U 73021 GY 73156.49320104  .00697626 +23539-3 +00000-0 0  9992
2 06692 072.8410 229.0906 0063976 248.3704 111.0650 15.97605967007000
Source of the keplerian elements: AFSPC